Lid_Strength_Index
4 4 4 4 4 4 4 4 4 5 5 4 4 4 5 5 5 7 9 7 6 3 2 3 5 6 5 7 7 7 10 12 11 12 11 9 9 8 7 8 9 8 8 3 2
4 4 4 4 4 4 5 5 5 5 5 4 4 4 5 5 7 9 6 4 3 2 3 5 6 6 8 7 7 8 10 10 8 9 10 9 8 8 8 8 9 8 7 4 2
4 4 4 4 4 5 5 5 5 5 5 5 4 4 5 5 9 9 3 2 2 1 2 4 4 5 9 7 8 9 10 8 8 7 8 8 9 7 8 9 7 7 7 3 3
4 4 4 4 5 5 5 4 4 5 5 5 5 4 4 6 13 6 -0 1 1 1 4 3 4 6 9 10 8 10 9 9 8 8 8 9 7 7 7 7 5 5 6 6 4
4 4 4 5 5 5 5 5 5 5 5 4 4 4 5 9 8 4 1 1 2 2 4 4 5 6 8 8 8 9 9 8 8 8 8 7 9 9 8 5 4 4 4 5 4
4 4 5 5 5 5 5 4 5 5 4 4 3 3 7 10 4 2 2 3 2 3 4 3 4 4 6 6 8 8 8 8 8 8 8 9 8 8 8 6 5 5 4 4 5
4 4 5 5 5 5 4 4 5 4 4 3 3 4 7 6 2 2 2 3 3 3 4 3 3 4 5 7 5 6 9 8 8 8 9 7 10 10 7 6 6 5 5 4 6
4 4 5 5 5 4 4 4 4 3 3 2 2 4 7 2 1 2 2 2 2 2 3 2 3 4 5 5 6 8 8 11 8 8 8 8 13 9 7 8 7 7 6 6 5
4 4 5 5 5 4 4 4 3 2 2 2 4 4 6 1 3 2 1 3 3 3 2 2 3 5 6 8 10 9 12 11 10 7 8 9 12 8 7 7 8 7 6 6 6
4 4 4 5 4 4 4 4 2 2 3 3 3 6 4 5 3 3 1 2 4 4 5 5 6 8 8 9 13 12 12 11 10 8 8 9 10 8 7 7 8 7 6 5 6
4 4 5 5 4 4 5 6 7 7 5 6 5 6 5 3 2 4 3 4 4 6 8 7 9 11 9 8 8 9 10 11 9 7 8 10 9 8 7 7 8 7 6 6 5
4 4 4 5 4 5 6 7 7 6 8 5 4 5 4 3 6 5 3 6 7 9 9 10 12 8 7 8 9 10 11 11 9 8 8 10 11 9 8 7 7 7 6 6 5
4 4 5 5 4 6 7 6 5 5 8 6 4 5 4 4 6 6 4 5 7 9 9 11 9 8 9 9 10 11 11 11 11 9 8 9 12 11 9 7 7 6 5 5 5
5 5 5 5 7 7 7 6 5 4 10 9 7 5 4 4 7 4 3 5 7 10 9 10 8 9 9 11 10 13 9 10 11 12 14 9 15 12 10 9 8 7 6 6 6
4 5 5 6 6 7 6 5 5 5 16 8 6 3 4 7 6 6 3 5 9 9 10 11 10 11 12 11 9 12 9 10 10 12 12 12 13 12 10 9 8 8 6 5 7
5 5 5 6 6 6 5 5 5 11 16 10 7 7 7 7 7 6 6 5 6 9 9 10 7 8 9 8 9 9 11 11 11 12 17 13 13 13 11 9 8 8 6 6 7
5 6 6 6 7 5 5 6 12 15 9 10 10 8 9 10 9 8 9 9 12 15 14 10 10 8 8 11 9 11 14 18 19 19 18 12 13 13 9 7 7 8 6 6 7
6 7 6 5 6 5 6 9 16 12 11 8 9 9 11 9 9 9 10 12 9 10 14 16 16 11 8 10 12 13 12 16 21 19 16 12 15 12 9 7 6 6 5 6 6
7 6 6 6 6 6 7 13 13 11 9 10 10 12 11 10 10 10 11 11 10 10 15 16 15 9 8 8 10 14 16 10 16 13 15 13 11 8 8 8 7 7 6 6 6
8 8 7 6 6 6 10 12 11 8 8 9 13 11 14 12 12 12 12 9 10 9 9 13 17 10 10 9 10 12 9 16 15 19 20 14 13 12 9 9 7 7 7 5 4
8 8 6 6 5 8 12 12 10 7 7 10 11 12 11 13 12 13 12 10 9 9 9 12 14 13 11 13 13 14 14 13 12 13 18 17 13 8 8 7 8 7 6 6 5
10 12 6 6 10 11 12 12 9 8 7 8 8 10 11 11 13 13 13 11 8 9 14 12 13 17 14 9 9 9 12 12 16 15 15 18 14 6 7 6 6 6 6 5 5
11 11 7 7 13 13 12 11 9 9 9 9 9 8 9 12 14 12 11 9 8 10 13 11 14 18 15 12 10 13 11 11 11 13 17 19 16 9 9 8 7 6 6 6 6
11 13 10 10 11 12 13 13 11 8 9 8 9 9 10 12 11 12 12 10 9 9 7 9 13 15 17 14 12 14 12 11 12 16 16 16 15 11 10 9 7 7 7 7 7
11 13 12 14 12 12 13 12 12 12 8 8 9 9 11 13 13 13 12 11 10 9 10 11 15 13 12 13 12 12 12 13 14 13 16 15 15 12 10 9 9 8 7 7 7
11 11 11 12 12 12 12 12 12 10 11 10 10 9 10 12 11 14 12 13 13 11 11 10 14 13 14 12 12 12 11 12 12 12 13 13 14 9 8 8 9 8 8 8 7
9 9 11 12 12 13 12 12 11 10 9 8 9 10 10 9 8 8 9 10 11 12 12 12 13 15 17 13 13 16 14 13 13 12 13 16 12 10 10 10 9 8 8 7 8